GECAM-B (47235 NORAD) Tracking and Keplerian Element Data

This shows tracking and keplerian element data for the satellite.

Feedback or suggestion? Click here.




ElementValue
Catalog47235
NameGECAM-B
Epoch Orbit624
Epoch Day20.93861825
Epoch Year2021
RAAN110.9678
Inclination28.9977
Eccentricity0.0013198
Argument of Perigee2.3234
Mean Anonmoly357.7424
Mean Motion14.90773431
Decay Rate2.69E-06
L11 47235U 20094B 21020.93861825 .00000269 00000-0 12947-4 0 9997
L22 47235 28.9977 110.9678 0013198 2.3234 357.7424 14.90773431 6246

Live tracking and technical data element details for GECAM-B (NORAD 47235). GECAM-B can be tracked NOW for your location showing map with azimuth and elevation plus other details from your city location.

Track the satellite on the map from your city or location and see movement details for azimuth, elevation, latitude, longitude, range, height, and movement on the map or in text.







IsCatalogInMostPopularTable: catalog: 47235, numindb: 20
Update: records affected: 1



GetName: 47235 GECAM-B

Hit Count: updated at: Sat, 23 Jan 2021 17:57:20 GMT